Location: Unspecified
(0.0000°N, 0.0000°E)
Time: 11:35:43
(UTC+00:00)

Envisat - Pass Details

Date: 25 May 2020
Orbit: 764 x 766 km, 98.1° (Epoch: 30 May)

Event Time Altitude Azimuth Distance (km) Brightness Sun altitude
Rises 19:01:39 0° 201° (SSW) 3,230 6.2 -15.0°
Reaches altitude 10° 19:04:58 10° 224° (SW) 2,301 5.8 -15.8°
Maximum altitude 19:07:43 15° 257° (WSW) 1,987 5.9 -16.4°
Drops below altitude 10° 19:10:28 10° 291° (WNW) 2,295 6.8 -17.1°
Sets 19:13:47 0° 314° (NW) 3,217 7.5 -17.8°
